GW6789 Weather Reports


Display with metric or nautical units.
time (UTC)temp
F
wind
direction
speed
MPH
gust
MPH
rain 1hr
in
rain 24hr
in
rain mn
in
humidity
%
barometer
mb
20260506122928 51 40 0.0 0.0 0.00 0.00 0.00 91 1018.2
20260506121923 51 243 1.0 1.0 0.00 0.00 0.00 91 1017.9
20260506120923 51 124 1.0 2.0 0.00 0.00 0.00 91 1018.2
20260506115917 51 218 3.0 3.0 0.00 0.00 0.00 91 1018.0
20260506114913 51 161 3.0 3.0 0.00 0.00 0.00 91 1017.7
20260506113909 51 128 3.0 3.0 0.00 0.00 0.00 91 1018.0
20260506112908 51 33 0.0 0.0 0.00 0.00 0.00 91 1017.9
20260506111903 51 69 2.0 2.0 0.00 0.00 0.00 91 1017.8
20260506110858 51 77 1.0 1.0 0.00 0.00 0.00 91 1017.4
20260506105858 51 36 0.0 0.0 0.00 0.00 0.00 91 1017.6
20260506104858 51 47 1.0 1.0 0.00 0.00 0.00 91 1017.3
20260506103853 51 31 0.0 0.0 0.00 0.00 0.00 91 1017.2
20260506102853 51 36 0.0 1.0 0.00 0.00 0.00 91 1017.3
20260506101848 51 43 0.0 1.0 0.00 0.00 0.00 92 1016.9
20260506100848 51 43 0.0 0.0 0.00 0.00 0.00 92 1016.9
20260506095844 51 57 0.0 0.0 0.00 0.00 0.00 92 1016.8
20260506094844 51 31 0.0 0.0 0.00 0.00 0.00 93 1016.9
20260506093840 50 38 0.0 0.0 0.00 0.00 0.00 93 1016.9
20260506092835 50 180 3.0 3.0 0.00 0.00 0.00 94 1016.9
20260506091835 50 66 0.0 0.0 0.00 0.00 0.00 94 1016.7
20260506090830 50 70 0.0 0.0 0.00 0.00 0.00 94 1016.7
20260506085830 50 3 2.0 3.0 0.00 0.00 0.00 94 1016.7
20260506084829 50 41 0.0 1.0 0.00 0.00 0.00 94 1016.8
20260506083828 50 33 0.0 0.0 0.00 0.00 0.00 94 1016.7
20260506082823 50 35 1.0 1.0 0.00 0.00 0.00 94 1016.6
20260506081821 50 35 0.0 0.0 0.00 0.00 0.00 94 1016.7
20260506080817 50 27 0.0 0.0 0.00 0.00 0.00 94 1016.5
20260506072818 50 31 0.0 0.0 0.00 0.00 0.00 93 1016.0
20260506071813 50 44 0.0 0.0 0.00 0.00 0.00 93 1016.0
20260506070813 50 7 0.0 1.0 0.00 0.00 0.00 93 1016.0
20260506061801 51 49 1.0 1.0 0.00 0.00 0.00 92 1015.8
20260506060757 51 60 3.0 3.0 0.00 0.00 0.00 92 1015.7
20260506050747 52 44 1.0 1.0 0.00 0.00 0.00 91 1015.6
20260506044746 52 54 1.0 1.0 0.00 0.00 0.00 91 1015.5
20260506043747 52 47 0.0 0.0 0.00 0.00 0.00 90 1015.2
20260506042743 52 22 1.0 2.0 0.00 0.00 0.00 90 1015.2
20260506041739 52 179 2.0 2.0 0.00 0.00 0.00 90 1015.1
20260506040739 53 55 0.0 0.0 0.00 0.00 0.00 90 1014.8
20260506035738 53 37 0.0 0.0 0.00 0.00 0.00 89 1014.9
20260506034738 53 39 0.0 0.0 0.00 0.00 0.00 89 1014.7
20260506033738 54 46 0.0 0.0 0.00 0.00 0.00 88 1014.7
20260506032737 54 28 0.0 0.0 0.00 0.00 0.00 87 1014.3
20260506031737 55 24 0.0 1.0 0.00 0.00 0.00 87 1014.5
20260506030733 55 222 1.0 2.0 0.00 0.00 0.00 86 1014.4
20260506025732 55 185 3.0 3.0 0.00 0.00 0.00 85 1014.5
20260506024732 56 58 2.0 2.0 0.00 0.00 0.00 84 1014.5
20260506023731 56 55 0.0 1.0 0.00 0.00 0.00 83 1014.4
20260506022730 57 70 1.0 1.0 0.00 0.00 0.00 82 1014.4
20260506021726 58 18 0.0 1.0 0.00 0.00 0.00 81 1014.2
20260506020725 58 204 3.0 3.0 0.00 0.00 0.00 80 1014.5
20260506015721 59 191 2.0 3.0 0.00 0.00 0.00 80 1014.5
20260506014721 59 121 3.0 3.0 0.00 0.00 0.00 80 1014.4
20260506013720 59 169 3.0 3.0 0.00 0.00 0.00 79 1014.4
20260506012719 59 247 3.0 3.0 0.00 0.00 0.00 79 1014.5
20260506011719 61 205 1.0 2.0 0.00 0.00 0.00 77 1014.7
20260506010714 61 62 1.0 1.0 0.00 0.00 0.00 76 1014.5
20260506005714 61 2 3.0 5.0 0.00 0.00 0.00 76 1014.5
20260506004712 61 144 3.0 3.0 0.00 0.00 0.00 76 1014.4
20260506003711 60 351 2.0 3.0 0.00 0.00 0.00 78 1014.3
20260506002709 62 32 3.0 5.0 0.00 0.00 0.00 77 1014.8
20260506001707 61 26 2.0 2.0 0.00 0.00 0.00 78 1014.5
20260506000702 62 353 3.0 3.0 0.00 0.00 0.00 78 1014.8
20260505235657 62 218 3.0 3.0 0.00 0.00 0.00 78 1014.7
20260505234657 61 16 4.0 5.0 0.00 0.00 0.00 78 1014.9
20260505233656 62 41 1.0 2.0 0.00 0.00 0.00 76 1014.8
20260505232651 62 352 1.0 2.0 0.00 0.00 0.00 77 1015.1
20260505231651 63 18 3.0 5.0 0.00 0.00 0.00 75 1015.1
20260505230648 62 176 1.0 2.0 0.00 0.00 0.00 76 1015.1
20260505225646 64 16 2.0 3.0 0.00 0.00 0.00 74 1015.2
20260505224644 62 200 2.0 2.0 0.00 0.00 0.00 78 1015.3
20260505223640 62 206 2.0 2.0 0.00 0.00 0.00 77 1015.1
20260505222638 62 239 3.0 3.0 0.00 0.00 0.00 78 1015.4
20260505221637 64 70 1.0 1.0 0.00 0.00 0.00 76 1015.3
20260505220637 62 185 4.0 5.0 0.00 0.00 0.00 79 1015.6
20260505215637 62 141 4.0 6.0 0.00 0.00 0.00 79 1015.5
20260505214633 60 44 0.0 0.0 0.00 0.00 0.00 81 1015.6
20260505213628 60 20 1.0 2.0 0.00 0.00 0.00 82 1015.8
20260505212626 59 31 0.0 0.0 0.00 0.00 0.00 84 1015.8
20260505211621 59 45 1.0 1.0 0.00 0.00 0.00 84 1015.8
20260505210620 59 31 0.0 0.0 0.00 0.00 0.00 83 1015.7
20260505205620 59 342 4.0 6.0 0.00 0.00 0.00 83 1015.8
20260505204615 59 27 2.0 2.0 0.00 0.00 0.00 83 1015.8
20260505203615 60 30 1.0 1.0 0.00 0.00 0.00 82 1015.9
20260505202614 60 268 1.0 2.0 0.00 0.00 0.00 82 1015.6
20260505201613 59 181 2.0 2.0 0.00 0.00 0.00 84 1015.8
20260505200608 59 333 0.0 1.0 0.00 0.00 0.00 84 1015.9
20260505195607 58 19 1.0 1.0 0.00 0.00 0.00 85 1015.9
20260505194602 57 68 1.0 2.0 0.00 0.00 0.00 86 1015.9
20260505193600 57 62 1.0 2.0 0.00 0.00 0.00 86 1015.9
20260505192556 58 13 1.0 2.0 0.00 0.00 0.00 86 1015.8
20260505191551 58 31 0.0 0.0 0.00 0.00 0.00 85 1016.0
20260505190549 58 83 2.0 2.0 0.00 0.00 0.00 85 1015.8
20260505185548 58 109 3.0 3.0 0.00 0.00 0.00 85 1015.9
20260505184547 57 77 1.0 2.0 0.00 0.00 0.00 86 1015.5
20260505183547 57 161 3.0 3.0 0.00 0.00 0.00 86 1015.7
20260505182546 57 186 3.0 3.0 0.00 0.00 0.00 87 1015.8
20260505181546 57 170 4.0 5.0 0.00 0.00 0.00 87 1015.9
20260505180544 56 203 3.0 5.0 0.00 0.00 0.00 87 1015.7
20260505175543 56 225 3.0 3.0 0.00 0.00 0.00 87 1015.7
20260505174543 56 181 5.0 6.0 0.00 0.00 0.00 87 1015.7
20260505173542 56 184 5.0 6.0 0.00 0.00 0.00 88 1015.6
20260505172542 56 183 4.0 5.0 0.00 0.00 0.00 88 1015.6
20260505171539 56 180 5.0 6.0 0.00 0.00 0.00 89 1015.4
20260505170538 56 195 3.0 3.0 0.00 0.00 0.00 89 1015.5
20260505165536 56 180 3.0 3.0 0.00 0.00 0.00 89 1015.5
20260505164534 55 194 5.0 5.0 0.00 0.00 0.00 89 1015.5
20260505163531 55 170 4.0 5.0 0.00 0.00 0.00 90 1015.4
20260505162526 55 217 4.0 5.0 0.00 0.00 0.00 90 1015.4
20260505161525 55 165 2.0 2.0 0.00 0.00 0.00 90 1015.5
20260505160521 55 170 2.0 2.0 0.00 0.00 0.00 90 1015.4
20260505152517 55 222 3.0 3.0 0.00 0.00 0.00 92 1015.2
20260505151513 54 199 3.0 3.0 0.00 0.00 0.00 92 1015.1
20260505150513 54 207 3.0 3.0 0.00 0.00 0.00 92 1014.9
20260505140501 53 46 0.0 0.0 0.00 0.00 0.00 91 1014.4
20260505124446 52 10 0.0 1.0 0.00 0.00 0.00 92 1013.4